Theta_e
358 358 355 351 349 356 348 340 316 323 319 312 314 319 317 330 331 327 326 331 328 336 340 342 341 337 332 326 327 330 332 329 330 316 310 335 353 356 357 358 360 360 360 362 363 363 363 365 366 367 368 368 368 369 369 367 368 367 369 368 368 368 367 367 367 367 366 367 366 365 365 366 365 365 365 365 364 363 363 361 361 360 360 360 361 362 362 363 363 362 362 362 362 361 361 361 361
354 353 353 350 355 348 334 339 319 313 314 313 316 321 322 328 328 324 326 328 333 337 343 341 342 338 340 333 332 334 332 336 337 335 343 351 354 355 357 359 359 358 360 362 364 363 363 364 367 367 368 368 369 369 369 367 368 368 369 369 368 368 367 367 367 367 367 367 365 365 364 366 366 365 365 365 364 364 362 361 360 360 360 361 361 362 362 363 363 363 362 362 362 361 361 360 361
352 349 346 357 354 349 342 338 314 311 309 309 315 320 329 323 324 327 330 332 338 341 343 344 343 342 338 337 329 327 323 342 343 345 344 352 347 350 356 358 359 360 361 363 364 363 363 364 367 367 368 368 369 369 369 368 368 369 369 369 367 367 368 367 367 367 366 365 364 365 365 366 366 365 366 365 364 363 362 361 360 360 360 360 361 361 362 362 362 362 363 362 362 361 361 361 360
347 344 351 351 337 344 330 327 318 313 309 312 314 324 325 325 326 331 336 338 341 344 342 342 337 343 337 328 330 336 334 337 346 345 343 347 349 353 356 358 361 360 362 363 364 364 363 366 368 368 368 369 369 369 368 368 369 370 369 368 367 368 368 368 367 366 365 364 364 364 365 365 366 365 365 365 365 364 363 362 362 361 361 360 362 362 362 362 362 362 362 362 362 362 360 360 360
343 354 360 348 337 326 326 321 319 315 310 315 313 323 326 329 330 332 336 341 343 343 342 340 337 343 343 339 344 332 331 343 346 349 348 350 354 354 356 358 358 358 358 361 363 364 364 369 369 369 368 369 369 370 369 369 369 369 369 368 368 368 368 367 366 365 364 364 364 365 364 364 364 364 365 365 364 364 363 362 362 361 362 361 361 362 361 361 362 362 362 362 362 362 361 359 359
357 356 361 354 336 339 328 315 314 314 319 324 319 321 329 331 331 333 336 341 343 346 344 340 337 335 336 340 345 336 347 333 345 348 350 348 352 356 357 357 356 355 357 360 363 363 365 367 369 369 369 369 369 369 370 370 369 369 369 369 368 368 367 367 366 365 364 364 364 363 364 364 364 364 365 365 365 365 363 362 362 362 362 362 362 361 361 361 361 361 362 361 361 361 361 360 360
352 350 349 344 339 342 318 314 315 316 321 328 325 326 328 331 332 335 337 339 343 345 347 341 347 339 333 341 344 348 353 358 348 348 352 352 354 356 356 355 355 354 357 360 362 364 366 369 370 369 369 369 369 370 370 369 370 369 369 368 367 366 367 366 366 364 364 364 364 364 364 364 364 364 365 365 365 364 364 363 363 362 362 362 361 361 360 360 360 361 361 361 362 361 360 360 359
356 344 342 326 322 327 317 318 317 320 322 329 331 329 331 333 335 333 336 335 333 337 339 346 346 337 335 349 333 348 352 358 354 354 354 354 355 354 354 355 354 355 357 360 362 364 369 371 370 370 369 370 369 369 369 369 369 369 368 367 366 366 365 365 364 364 364 364 364 364 364 364 363 364 365 365 365 364 364 363 363 362 362 361 360 359 359 359 359 360 360 361 361 361 360 360 359
349 346 346 327 318 323 319 317 318 326 325 329 331 336 337 336 336 334 334 336 339 341 340 342 346 333 334 336 333 345 349 351 354 357 354 354 352 352 355 354 354 355 357 360 362 364 366 370 370 370 370 370 370 369 370 369 369 368 367 367 366 365 365 364 363 364 364 363 363 363 363 362 362 363 364 364 364 364 364 362 362 362 361 361 360 358 357 358 358 359 360 360 361 360 360 359 360
347 344 329 324 324 314 317 317 317 322 325 329 330 332 335 335 333 340 337 335 337 340 341 344 341 333 339 330 334 339 345 352 353 352 353 352 351 353 354 356 357 357 357 360 362 364 365 369 370 369 369 370 370 370 369 369 368 367 367 367 366 365 364 364 364 364 363 363 363 363 362 362 362 363 364 364 364 364 363 362 362 361 360 360 359 359 358 358 358 359 359 360 360 360 361 360 361
334 342 341 319 313 313 313 315 319 325 326 329 331 334 336 339 335 333 339 337 343 338 340 346 336 337 336 333 335 348 349 350 350 347 351 352 354 355 356 358 358 358 358 361 362 364 365 365 369 370 369 369 369 368 368 367 368 367 367 366 365 365 364 363 363 363 363 363 363 362 362 363 362 362 364 364 364 364 363 362 362 361 361 360 359 359 358 358 358 359 359 359 360 359 361 361 360
329 330 332 313 311 311 315 314 318 321 327 329 330 334 337 337 338 334 335 334 337 339 339 345 332 342 332 332 334 344 348 348 350 353 352 355 356 356 357 358 359 359 360 361 363 363 364 365 365 369 369 369 369 369 368 367 367 367 366 365 365 364 363 363 362 363 363 363 362 363 362 363 363 363 363 364 364 363 363 363 363 362 361 360 360 359 359 359 359 359 359 359 359 360 361 360 360
334 332 324 312 313 316 318 316 318 323 321 325 326 334 338 336 334 336 337 335 338 336 336 344 344 341 328 330 340 347 344 348 356 352 355 356 356 357 358 358 359 360 361 363 362 362 363 363 364 365 366 369 369 368 368 367 367 367 365 366 365 364 364 362 362 363 363 363 363 362 362 362 363 362 363 364 364 364 364 364 363 362 361 361 360 360 359 359 359 359 358 358 358 358 360 360 360
334 331 321 313 318 316 315 316 319 316 318 327 332 335 336 334 336 337 336 335 336 335 344 350 348 341 333 336 337 339 342 350 356 352 354 357 358 358 358 358 358 359 361 362 361 362 362 363 363 363 365 364 363 366 368 368 367 366 365 365 365 364 363 362 363 363 363 363 363 362 362 362 363 363 364 363 364 365 365 364 364 363 362 361 360 360 359 360 359 358 358 358 358 358 359 360 360
334 337 324 314 313 314 315 313 316 316 316 327 334 332 333 338 338 340 337 333 335 346 347 356 348 339 326 333 331 337 342 352 357 352 356 357 358 357 357 357 357 358 360 361 362 361 361 362 362 363 364 362 362 361 362 365 368 365 366 365 365 364 363 364 363 364 363 364 363 364 363 364 363 364 364 363 364 365 366 365 364 364 363 362 362 360 360 359 359 358 358 358 358 358 358 359 359
341 328 318 312 311 313 316 317 318 317 316 329 332 334 333 337 341 338 339 342 339 349 350 337 351 338 342 337 338 342 348 352 355 352 356 355 355 355 355 356 356 357 358 359 360 360 361 361 362 362 362 361 361 361 361 362 365 366 366 366 365 364 364 364 363 364 364 364 364 364 364 364 363 362 365 363 365 367 367 365 365 364 364 363 362 362 360 359 358 358 358 358 358 358 358 359 359
343 327 314 312 311 314 315 317 319 312 322 328 334 334 330 331 342 343 346 349 340 340 343 343 338 344 337 341 346 348 350 356 353 351 353 352 352 351 353 354 355 355 357 358 358 359 360 360 361 361 361 360 360 360 360 361 363 365 365 364 365 364 364 364 363 364 364 363 364 364 364 362 357 359 362 362 366 365 366 368 366 365 365 364 363 362 361 360 359 359 359 359 359 359 359 359 360
323 319 314 311 314 317 322 321 322 326 325 328 330 332 331 329 336 337 349 342 341 340 339 341 342 341 345 346 350 352 352 351 349 345 347 349 350 349 350 351 352 352 354 355 358 359 359 360 360 360 360 360 360 360 360 361 361 364 359 359 360 360 362 363 361 358 364 358 364 361 358 361 358 356 357 366 363 365 365 368 368 366 366 365 364 363 362 361 360 359 359 359 359 359 360 356 357
320 316 315 311 314 322 329 328 328 326 324 328 331 333 334 332 335 336 335 334 336 334 336 339 337 339 344 347 350 351 350 351 350 347 346 347 346 345 347 349 350 352 352 354 356 359 359 360 360 360 360 360 359 360 360 360 359 359 357 358 359 362 362 361 358 361 356 356 355 356 360 358 360 357 359 361 365 367 366 368 367 369 366 366 365 365 363 362 361 361 360 359 360 360 358 353 353
322 319 314 317 324 327 330 331 329 331 330 328 329 333 333 334 336 342 333 332 334 329 329 333 335 334 339 343 347 347 349 348 350 346 346 347 346 347 347 348 349 351 352 353 354 358 359 359 360 360 360 359 359 359 359 358 357 357 357 357 356 357 357 360 356 356 356 355 356 355 357 358 359 358 365 366 368 364 365 369 368 368 367 367 366 365 364 363 363 362 361 361 361 360 353 354 352
323 321 317 321 328 326 329 333 332 331 333 331 332 335 332 335 335 339 334 328 327 331 336 333 334 335 339 343 344 346 346 346 346 344 346 347 347 347 348 349 349 351 353 354 355 355 360 359 360 359 361 360 358 358 358 356 356 356 356 356 356 355 356 356 356 355 355 354 355 356 357 358 359 357 357 360 363 363 361 362 364 364 365 361 367 358 358 359 359 356 356 359 354 356 354 352 351
324 321 324 326 328 326 331 333 333 333 335 333 332 328 329 338 338 336 334 325 323 330 337 339 342 340 339 341 342 344 344 343 342 345 346 347 347 345 348 349 351 352 354 352 353 355 358 360 360 360 360 359 358 358 357 357 358 355 355 356 355 354 355 355 355 355 355 355 355 356 357 357 356 356 356 358 360 361 359 359 362 364 362 360 365 357 356 356 355 355 354 354 354 355 353 350 350
318 323 326 328 329 327 332 334 334 335 332 329 328 332 337 334 332 335 335 332 336 342 340 342 346 345 343 343 343 341 341 341 342 342 344 344 345 348 347 347 348 348 352 352 354 356 359 359 360 360 359 358 358 358 358 358 356 356 356 356 355 354 355 355 356 355 356 356 356 357 356 354 355 355 355 356 357 359 357 357 362 363 361 359 361 357 356 355 354 354 354 354 354 354 353 350 350
325 320 327 329 333 332 334 334 335 333 330 328 332 336 331 331 327 334 333 339 342 342 341 344 345 345 343 339 341 342 342 342 341 342 345 345 344 347 351 347 347 348 350 352 353 355 358 358 360 360 358 357 357 358 357 356 356 357 356 361 358 357 356 355 356 356 357 357 358 357 359 356 354 353 353 354 355 356 355 355 361 363 362 360 360 357 355 354 354 354 354 354 354 354 353 351 350
322 322 329 331 334 334 335 334 332 331 330 332 333 329 329 331 330 335 331 337 342 345 346 346 345 344 343 340 339 342 344 343 340 342 344 346 349 352 351 349 349 347 347 350 352 354 356 358 360 359 358 358 357 357 356 356 356 356 357 357 357 360 356 355 355 357 357 358 358 359 359 357 355 352 346 348 352 353 351 353 359 362 361 359 359 357 356 354 353 354 354 355 354 354 353 350 350
325 327 331 332 332 333 334 332 332 331 332 332 328 327 330 333 335 328 331 335 342 341 344 344 346 343 342 342 342 342 342 342 343 341 343 348 351 350 349 347 350 345 347 348 350 352 355 358 359 358 357 358 357 356 356 356 355 354 356 357 357 360 356 356 356 356 357 357 357 358 358 358 355 349 342 340 345 347 345 348 357 360 360 358 359 356 357 355 353 354 354 355 355 354 353 353 351
329 330 331 330 331 332 333 331 331 333 331 331 326 326 328 332 329 320 333 338 342 341 339 342 341 341 342 343 342 342 342 342 346 350 351 351 349 349 350 349 351 351 355 351 349 349 355 356 357 358 357 361 358 354 354 355 355 354 356 356 356 357 357 358 358 356 356 355 356 357 357 355 354 347 341 341 342 342 343 342 352 358 358 357 358 356 357 356 355 354 354 354 354 353 353 355 355
331 332 331 330 331 332 331 331 330 331 329 331 328 325 329 330 329 322 328 339 342 342 338 339 340 341 342 344 344 344 344 347 349 350 348 348 347 349 350 346 350 354 354 355 356 359 353 356 357 358 358 359 358 355 355 354 353 352 354 355 353 355 357 355 355 353 354 352 355 355 355 355 355 351 350 348 347 346 347 347 345 352 354 354 355 355 356 356 355 355 355 354 354 353 353 354 355
332 331 324 327 328 326 330 328 330 332 329 332 331 325 322 326 323 329 335 340 339 338 337 337 339 340 342 343 343 343 343 345 346 347 348 349 350 352 350 353 354 353 357 357 357 357 352 354 356 358 359 359 356 354 352 351 353 351 350 353 354 358 357 356 355 357 358 357 356 357 357 359 360 356 355 355 354 349 349 346 345 348 350 352 353 354 356 355 355 355 354 355 354 353 352 351 354
331 328 325 323 322 321 328 334 332 330 330 333 331 310 314 321 327 332 337 334 338 333 332 336 337 339 341 341 341 341 343 344 344 345 347 347 350 351 351 353 356 353 353 355 358 358 361 362 357 357 356 356 354 352 351 349 353 358 361 361 364 359 358 356 358 356 359 359 357 355 357 359 358 356 355 353 353 350 351 349 347 346 348 351 352 353 352 354 353 353 353 354 355 353 351 351 351
320 325 325 318 316 314 328 330 330 326 334 334 332 311 314 321 326 331 334 336 335 329 333 335 336 338 339 340 340 340 342 343 345 347 348 350 350 350 351 356 356 355 356 355 355 356 360 361 361 360 359 356 359 355 355 355 359 361 360 360 359 357 357 356 356 355 357 358 357 356 356 357 357 356 355 353 354 352 352 351 351 349 348 349 349 353 351 352 352 352 354 352 352 352 350 353 352
322 316 311 318 315 316 325 331 328 321 329 337 325 311 314 321 325 329 334 333 335 330 333 335 336 337 338 339 340 340 342 347 348 349 351 350 352 350 351 353 355 355 353 354 358 357 356 357 361 360 360 358 359 360 358 359 359 359 361 364 359 359 357 355 355 357 358 357 358 356 354 355 357 354 355 355 353 353 353 353 355 353 351 349 347 352 351 350 350 351 353 352 349 351 350 350 353
316 311 311 313 316 316 319 327 330 330 329 334 324 312 318 320 326 330 332 333 334 330 331 335 335 337 338 340 340 341 342 344 345 347 348 350 352 351 351 353 354 353 355 355 354 355 357 360 360 358 359 360 359 359 359 358 358 358 359 360 359 357 355 355 356 357 358 357 358 358 356 358 357 354 354 354 352 352 353 354 357 357 354 350 348 347 351 350 350 350 350 353 350 348 350 350 350
310 307 310 317 315 315 311 324 330 330 326 318 324 319 319 322 327 329 332 336 333 329 331 335 335 335 337 339 340 340 339 339 341 344 346 350 351 352 352 356 354 354 355 356 356 354 356 357 356 357 358 359 358 358 358 357 356 356 356 355 360 356 355 356 357 356 356 355 356 358 358 359 359 355 354 354 352 354 354 355 356 359 357 354 349 347 346 349 349 350 349 352 350 349 348 349 348
301 312 313 313 316 316 314 317 325 326 325 319 320 318 318 324 328 330 334 336 331 330 332 334 336 336 338 338 339 339 338 338 340 344 347 349 350 352 351 354 352 354 355 355 356 357 355 355 358 359 358 357 357 358 358 357 357 356 355 355 355 353 353 355 355 355 355 356 355 357 358 359 360 356 354 354 352 352 354 354 353 355 356 355 351 349 348 348 348 349 350 350 351 349 348 348 348
311 315 315 314 312 312 314 321 328 324 319 318 318 316 318 322 325 327 329 330 329 329 331 333 336 336 336 336 337 339 339 341 344 346 349 350 350 351 350 352 352 353 353 355 356 355 354 355 355 357 357 358 357 357 358 355 354 353 352 352 352 353 354 355 356 355 356 355 357 358 358 359 358 359 355 353 351 353 352 352 352 354 356 355 352 351 349 348 348 349 350 349 348 348 349 348 347
312 316 315 314 313 314 318 320 326 326 320 317 319 320 320 321 323 327 328 328 328 329 330 332 334 334 335 336 337 338 339 340 346 348 349 350 351 352 351 351 352 353 352 353 352 353 353 353 354 353 356 358 357 355 354 352 351 350 350 351 351 352 353 355 356 356 356 356 357 358 359 359 358 357 358 355 353 355 355 352 352 353 354 355 353 352 351 351 349 348 349 353 349 346 346 346 347
317 315 314 311 313 311 317 319 323 324 319 316 320 319 319 323 325 326 327 325 325 327 328 330 332 333 335 337 338 338 340 345 347 347 349 350 350 351 352 351 357 350 351 352 353 353 352 354 353 353 355 356 355 355 355 354 353 351 350 350 352 351 352 353 354 355 356 358 357 357 358 358 357 357 360 356 356 353 353 353 352 352 353 354 355 355 353 356 353 350 349 347 349 347 346 348 347
316 313 310 309 309 316 319 320 323 326 320 314 319 316 316 320 322 325 325 326 327 330 329 330 332 333 334 337 340 339 340 341 344 346 349 349 351 352 350 352 352 352 353 352 353 354 354 355 355 357 355 355 355 357 356 353 355 355 352 351 353 351 354 355 354 356 358 358 358 358 358 357 358 357 357 360 356 355 354 353 352 352 352 353 354 353 354 353 353 352 347 344 345 347 347 352 347
308 308 308 307 314 313 308 316 321 325 320 315 317 313 314 320 322 325 325 327 327 331 333 331 336 335 336 338 339 338 339 339 341 344 346 347 350 349 352 350 351 352 354 352 353 353 354 353 352 354 355 356 354 359 359 356 356 355 353 353 352 350 349 353 352 352 352 355 355 357 357 357 357 357 357 357 358 356 355 353 353 352 351 353 352 352 352 353 353 352 350 348 344 341 343 346 349
307 311 310 310 313 314 314 314 320 321 321 322 315 310 309 314 316 316 321 327 328 332 332 334 335 337 338 338 336 336 334 336 341 341 344 344 344 347 349 352 353 351 350 350 352 352 354 352 352 352 354 354 356 359 355 353 357 354 353 351 350 349 349 349 348 349 350 353 355 354 355 357 358 358 357 355 356 355 355 355 354 353 352 352 353 352 352 353 354 350 352 350 345 343 340 344 347
307 312 314 315 316 314 316 318 315 309 309 317 313 300 304 311 318 317 319 322 325 329 328 331 332 333 335 334 335 337 336 339 341 341 343 345 345 347 350 349 348 350 350 350 352 352 351 351 353 353 354 353 352 353 351 351 350 351 348 345 343 344 344 344 344 345 346 348 350 353 354 356 358 358 358 357 355 356 353 353 354 354 354 354 354 354 354 352 351 352 352 350 349 349 344 342 341
306 309 317 317 316 316 316 315 312 303 302 312 318 300 299 312 315 317 319 322 323 327 328 330 331 330 332 333 335 337 337 339 341 343 344 341 343 345 345 346 346 349 347 350 354 353 352 350 349 350 353 353 353 353 353 354 348 350 349 347 345 345 344 344 347 350 350 351 352 352 352 353 357 358 358 358 357 357 355 354 354 355 355 355 357 353 350 351 351 352 353 351 349 351 347 341 341
295 310 317 318 316 316 315 315 312 307 316 316 318 309 303 304 311 318 321 322 322 324 326 326 326 329 332 334 336 338 339 339 339 341 342 344 346 345 344 347 347 349 349 352 351 353 350 351 351 354 355 357 351 349 351 354 351 348 346 346 348 346 345 345 347 348 350 353 351 351 353 355 356 357 357 357 358 358 357 355 355 354 354 355 354 352 352 352 352 353 354 353 351 351 346 343 342
299 316 320 317 318 317 317 314 311 311 309 303 309 315 303 305 312 317 319 319 319 322 321 321 322 323 326 331 336 337 339 339 340 340 340 342 344 345 346 347 349 351 351 350 350 351 354 353 353 353 354 354 355 355 355 353 355 350 348 347 345 348 348 348 351 353 351 352 350 351 351 353 355 355 355 354 355 356 358 356 355 354 353 353 356 354 353 352 351 350 350 351 350 350 348 347 344
315 321 321 320 320 318 317 310 311 310 300 298 304 312 300 302 310 312 319 318 317 320 320 322 323 323 325 328 333 336 337 335 334 333 334 336 338 340 343 344 344 345 347 350 346 347 348 348 350 350 349 349 350 351 355 352 352 354 347 347 346 346 349 349 345 345 345 347 348 349 349 350 352 353 354 354 353 353 354 355 355 354 353 353 355 353 353 352 352 351 351 351 351 350 351 349 346
322 319 314 312 311 311 313 309 309 302 296 298 307 310 306 299 307 311 311 312 317 320 319 322 324 324 326 330 333 332 330 331 331 332 333 334 335 337 339 339 341 342 343 344 344 345 344 343 341 341 343 344 350 351 351 350 351 351 349 347 347 346 344 343 342 343 344 345 346 348 349 350 352 353 353 354 353 353 352 354 354 354 354 354 355 353 352 352 353 354 354 353 352 350 350 350 350
317 312 310 309 306 306 306 303 301 295 293 301 308 307 307 297 303 312 318 322 322 320 319 320 322 323 326 331 331 329 329 330 331 331 331 332 333 334 335 336 338 339 339 339 340 342 343 342 339 339 340 341 341 345 346 347 351 352 350 348 346 346 344 344 341 341 342 342 344 345 346 347 349 351 350 351 352 354 354 353 355 355 354 353 353 353 353 353 354 355 352 351 351 350 351 350 350
307 310 309 302 296 298 296 297 296 293 292 303 308 309 304 304 306 313 319 320 322 324 323 322 323 324 327 331 328 329 329 330 330 330 331 332 332 333 334 335 334 335 337 339 339 339 339 339 340 338 337 341 341 339 341 343 342 345 347 344 343 346 345 344 343 342 343 343 343 344 344 344 345 346 348 349 351 353 354 353 353 353 353 353 353 352 352 353 353 354 353 351 351 348 350 350 348
307 307 301 297 292 292 288 292 294 296 304 311 307 314 304 308 313 319 318 321 324 324 325 326 325 326 328 328 327 328 329 330 331 332 332 332 333 334 335 335 333 334 336 339 341 341 339 338 337 338 337 338 341 336 339 338 339 342 342 340 340 344 341 342 340 340 342 343 345 345 345 346 347 347 347 348 350 352 355 355 355 353 353 353 354 353 353 354 354 354 352 351 350 351 352 351 350
298 300 302 298 296 292 288 291 289 292 297 304 313 306 299 301 303 324 322 325 325 325 325 326 328 330 330 328 328 328 329 330 331 331 331 331 331 332 333 335 335 335 335 337 338 337 337 335 333 334 336 337 337 337 338 337 338 339 338 341 342 343 340 340 339 344 344 343 342 342 341 341 343 343 343 345 349 351 352 353 354 353 353 353 355 355 357 356 356 356 355 352 353 352 350 351 350
297 301 302 299 297 299 292 296 298 299 298 301 305 304 309 306 320 326 325 327 326 326 325 327 329 331 328 326 326 327 329 329 329 327 327 327 329 330 330 331 333 333 334 334 336 338 336 333 332 332 333 336 337 339 335 338 335 337 339 338 339 346 346 341 341 342 340 340 341 340 340 340 342 342 343 345 345 349 351 352 352 352 351 350 350 352 354 356 356 355 354 354 352 354 351 349 349
297 302 297 298 304 307 302 305 307 306 302 298 309 304 309 315 312 321 322 323 323 324 325 327 328 328 324 323 325 326 327 327 327 327 327 327 329 329 329 329 331 333 332 332 333 336 337 337 335 332 333 337 337 340 335 338 336 335 336 337 338 338 338 338 339 339 340 341 341 341 341 343 344 344 343 344 342 342 349 351 351 350 349 350 350 351 352 353 355 355 354 352 352 353 353 351 350
301 297 298 305 310 310 302 296 299 297 295 297 304 303 303 302 298 316 318 318 320 321 322 326 326 322 321 322 324 325 325 326 327 328 328 329 330 331 331 331 332 332 331 330 334 333 336 337 334 333 335 331 332 335 337 336 336 336 336 337 337 337 338 339 340 340 341 341 340 341 341 340 340 341 342 344 346 345 344 353 351 350 351 351 351 353 354 354 354 354 353 353 353 353 352 353 353
304 299 305 305 300 299 302 301 294 294 292 292 299 306 306 304 302 313 314 316 318 319 321 322 323 320 320 321 322 324 325 326 326 327 328 329 330 329 328 329 330 331 335 330 333 336 335 334 335 332 333 332 333 338 339 339 338 338 339 338 337 338 338 338 339 340 339 340 340 340 340 340 341 342 344 342 341 343 343 343 342 345 348 350 352 352 353 353 354 352 353 352 353 353 351 350 352
306 307 306 310 305 301 299 298 297 299 293 295 295 301 299 310 309 314 315 318 319 320 320 321 322 320 320 321 322 323 325 325 326 327 328 329 329 329 327 326 326 328 329 332 333 336 335 335 339 336 338 337 337 337 340 336 337 337 339 338 338 337 339 339 339 339 340 340 340 340 340 340 340 344 342 342 341 341 341 340 341 341 343 345 347 351 352 352 351 349 349 349 351 352 352 350 351
299 301 302 306 307 307 304 305 303 297 294 292 293 293 300 307 315 316 317 319 320 321 320 321 322 321 321 322 323 324 325 326 326 327 327 328 329 328 327 326 327 328 334 330 331 333 334 336 334 336 333 336 335 337 336 337 337 335 338 337 337 337 338 339 339 340 341 339 339 343 340 340 342 340 341 341 340 340 340 341 341 344 346 347 347 348 349 349 348 348 349 350 351 350 349 349 351
300 299 300 303 301 300 297 297 307 304 298 293 292 292 299 309 319 319 318 320 321 322 322 321 321 321 322 323 324 324 325 326 326 327 327 327 327 327 328 328 326 328 326 326 329 331 331 330 331 335 334 335 335 337 335 336 335 337 336 336 336 337 338 339 339 339 340 339 338 338 339 341 339 339 341 341 340 341 342 341 341 342 342 343 345 346 348 348 348 347 348 350 350 348 346 347 347
Wind_Speed
11 8 6 6 5 2 2 0 1 1 1 1 1 1 1 3 2 3 1 2 1 1 2 3 4 4 1 5 9 8 4 5 2 7 4 3 10 14 12 14 13 12 11 9 9 9 10 15 17 17 17 18 18 18 18 17 16 16 15 15 14 14 13 13 13 13 12 12 11 11 11 11 11 10 10 9 9 8 8 9 9 8 7 7 7 9 10 11 10 9 8 9 10 10 10 11 12
8 7 7 6 4 4 2 1 0 2 2 1 2 1 2 1 2 2 2 1 2 2 1 2 2 4 2 8 6 3 12 8 2 4 5 8 13 10 14 16 15 15 10 9 9 9 8 11 16 17 17 18 18 19 18 18 16 16 16 15 14 15 14 13 13 12 12 12 12 12 12 11 11 11 10 10 9 9 8 8 8 8 8 7 7 8 9 9 9 9 9 9 10 10 10 11 12
8 8 5 4 3 1 1 0 1 1 3 3 2 2 4 1 2 3 2 2 3 3 3 4 3 2 2 3 10 4 1 6 11 9 8 12 13 8 14 16 14 13 12 8 10 9 8 10 16 17 18 19 19 19 18 18 17 16 15 15 15 15 14 14 13 12 11 11 11 12 11 10 10 10 10 10 9 8 8 8 8 8 7 7 7 7 8 8 9 9 9 8 9 10 10 10 11
8 6 7 5 2 0 0 0 2 2 2 2 1 2 2 1 3 2 2 3 3 4 2 1 3 3 2 16 9 10 7 4 5 11 9 9 6 13 14 14 14 11 10 8 8 8 8 11 17 17 18 19 19 18 18 18 16 15 15 15 15 15 14 13 13 12 11 11 11 11 11 10 9 9 10 10 10 9 8 8 8 7 7 7 7 7 8 8 8 7 7 8 9 10 9 8 10
7 4 2 3 2 0 1 1 3 2 6 4 3 4 6 4 2 2 2 3 3 4 3 4 2 2 5 7 2 1 6 9 8 4 7 6 11 12 14 14 12 12 10 9 8 8 9 17 17 18 18 18 19 18 18 18 16 16 15 14 14 14 14 14 12 11 11 10 11 10 10 10 9 9 9 9 9 9 8 7 7 7 6 6 6 6 6 7 8 8 7 6 7 8 9 8 8
5 5 1 1 0 2 1 5 6 7 5 2 2 4 7 7 6 2 2 3 2 2 3 3 2 1 5 4 2 3 1 4 7 7 8 10 15 15 15 13 12 11 10 9 8 8 10 18 19 20 19 18 19 19 18 18 17 15 14 13 13 14 14 13 12 11 10 10 9 9 9 8 8 8 8 8 8 8 7 7 6 6 6 5 5 5 5 5 7 8 8 7 7 7 8 9 8
5 4 0 1 0 1 4 4 7 4 3 4 2 1 4 5 6 6 4 3 4 3 5 3 2 7 6 1 6 4 1 1 4 9 9 13 16 15 14 12 11 11 10 8 8 8 11 19 19 19 19 18 18 18 18 17 15 14 13 13 13 13 13 12 12 11 10 10 9 9 8 8 8 7 8 8 8 7 7 6 6 6 6 5 5 5 4 5 6 7 8 8 8 6 6 8 8
0 1 1 1 1 3 4 1 4 2 3 1 2 2 3 3 3 3 2 1 3 2 4 1 1 4 4 2 5 5 6 4 7 15 17 14 15 15 14 12 11 10 10 9 7 6 14 20 19 19 19 19 17 17 16 15 14 13 13 13 13 13 12 11 11 11 11 10 9 9 8 8 8 8 7 7 7 7 6 6 6 5 5 5 5 4 4 4 6 6 7 7 7 6 5 7 8
1 0 1 3 5 2 3 3 0 1 3 2 2 2 2 3 2 3 1 1 2 1 4 5 2 3 1 7 7 4 4 5 17 19 18 16 16 16 11 12 11 10 10 8 7 6 9 17 18 19 18 16 16 15 16 15 15 15 13 12 12 12 11 11 11 11 11 11 10 9 9 9 8 8 7 7 6 7 7 7 6 6 5 5 4 3 3 3 4 5 6 7 7 7 5 5 7
0 1 2 2 2 6 2 3 3 2 2 1 1 2 3 3 6 2 2 4 4 2 2 2 6 6 7 11 2 5 2 3 21 20 18 17 18 15 14 13 12 13 10 9 7 7 7 16 19 18 17 16 16 16 16 16 15 15 14 12 12 11 11 11 11 11 11 10 10 10 9 9 9 9 8 7 7 6 7 7 6 6 6 5 5 4 3 2 2 4 5 6 7 7 6 4 6
2 1 1 4 4 4 4 1 1 2 2 1 2 1 1 1 2 5 1 2 1 2 1 3 5 4 6 5 3 4 5 3 19 20 18 19 17 16 13 12 13 12 12 11 8 7 8 10 19 19 18 18 18 18 17 16 16 15 13 12 11 11 11 10 11 11 10 10 10 10 9 9 9 9 9 8 8 8 7 6 7 6 6 6 5 5 3 3 2 3 4 6 6 8 6 5 3
3 1 2 4 3 4 2 1 1 2 2 0 0 1 1 3 3 1 3 3 2 3 4 2 3 3 5 3 2 1 2 6 2 7 17 15 14 17 14 10 12 11 12 11 9 7 8 8 10 17 20 19 18 18 17 16 15 14 13 12 11 11 10 10 10 10 10 10 10 9 9 9 8 9 9 9 9 8 7 7 7 7 7 7 6 6 5 4 4 3 3 4 6 7 7 5 4
2 1 2 4 3 2 4 1 1 0 3 1 2 1 3 2 0 0 1 0 1 1 3 4 1 6 3 1 0 2 5 2 1 3 11 14 14 13 13 11 12 12 10 9 9 8 8 8 8 9 13 19 18 18 16 16 15 14 13 12 11 11 11 11 10 10 10 10 9 8 8 8 8 8 8 9 9 9 8 8 8 8 7 8 7 7 6 5 5 4 4 3 4 6 7 5 4
3 4 1 1 1 2 1 1 1 1 2 2 1 2 4 1 1 1 2 1 3 2 0 2 2 7 2 4 1 1 4 3 3 3 11 15 12 13 14 12 13 12 10 8 9 8 8 7 7 7 10 10 9 13 16 16 15 15 14 12 12 12 12 12 11 11 10 10 9 9 8 8 7 7 7 7 8 9 9 9 9 9 9 9 8 8 7 7 6 5 4 3 3 4 5 5 5
6 1 0 3 0 0 1 2 1 1 1 1 1 2 4 2 2 2 2 2 2 1 3 0 0 3 4 7 4 5 5 2 1 7 13 14 14 13 13 12 12 11 9 9 8 8 8 7 7 7 7 6 7 5 6 11 16 15 14 13 13 13 13 13 12 11 11 10 10 9 9 8 8 8 8 7 7 8 9 10 10 10 11 10 10 9 8 7 6 5 4 3 2 2 3 5 5
6 4 2 2 1 3 1 3 2 1 2 0 2 1 3 2 2 1 2 2 1 2 3 3 5 1 1 2 3 5 2 1 3 5 15 15 13 12 12 12 10 10 8 8 8 7 8 7 6 7 6 6 5 4 6 6 13 15 14 14 14 13 13 13 13 12 12 11 10 9 9 7 7 6 9 6 8 9 10 8 10 10 11 11 10 10 9 8 7 6 5 4 3 2 2 3 3
5 2 2 1 1 2 2 1 2 1 2 2 2 3 1 1 0 1 3 4 5 4 4 10 7 9 11 8 6 6 1 2 7 9 13 12 11 9 8 9 9 8 6 8 7 8 8 8 8 6 6 7 6 5 5 5 8 14 12 14 15 14 13 14 13 13 11 10 9 9 9 5 3 3 5 4 8 6 9 11 10 11 11 11 11 10 10 9 8 7 6 6 5 4 3 4 4
6 1 5 1 3 4 2 4 5 3 2 2 2 1 1 1 3 2 3 6 5 5 8 7 13 10 8 10 9 7 7 3 2 12 8 11 9 9 10 9 10 9 8 7 7 8 8 8 9 7 6 7 7 6 5 5 6 10 6 6 6 9 11 12 9 6 8 4 9 7 4 3 5 4 5 7 6 6 7 11 11 11 10 10 10 10 9 9 9 8 8 7 6 5 5 1 2
4 3 3 5 3 2 3 4 6 6 3 4 2 1 1 1 1 2 3 3 4 7 8 6 10 7 5 5 6 6 6 7 4 2 11 12 11 11 10 8 9 10 9 8 7 9 8 7 8 8 7 7 8 7 6 5 5 5 5 6 5 9 6 8 5 6 4 5 3 4 4 5 5 5 6 7 6 10 9 11 11 11 10 10 10 10 10 10 10 10 9 8 6 6 2 1 1
3 5 4 1 2 4 6 7 6 3 8 5 4 0 1 1 1 2 3 3 5 4 3 3 6 6 6 5 5 6 4 5 7 5 4 8 9 11 10 10 10 11 11 9 9 9 9 9 9 9 9 8 8 6 6 5 4 5 5 5 5 5 6 5 5 4 4 4 5 4 5 5 6 5 9 14 13 7 7 12 12 13 11 11 11 8 10 11 11 11 10 9 6 2 2 2 1
4 1 5 6 8 9 4 6 5 7 7 7 4 3 4 2 1 0 3 6 4 2 1 5 5 9 7 7 7 5 4 6 9 1 4 6 8 9 11 11 11 10 10 9 8 9 11 10 9 8 9 9 8 7 7 6 5 5 5 5 5 4 5 5 5 4 4 5 6 5 6 6 6 6 6 5 6 5 4 5 5 5 5 4 10 3 4 5 6 4 4 6 3 4 3 2 1
4 2 7 13 9 8 8 8 9 8 3 6 4 4 3 1 4 4 3 6 1 3 3 5 5 8 9 7 5 5 4 7 11 8 6 5 8 10 8 8 8 9 10 9 10 10 11 11 11 9 10 9 8 7 8 7 7 6 6 6 5 4 5 5 5 5 5 6 6 7 6 7 7 6 6 6 6 6 4 5 5 4 5 5 5 5 4 5 3 4 4 4 4 4 4 4 2
7 4 6 8 9 12 6 8 8 7 5 6 4 2 3 4 4 2 4 3 1 3 6 7 5 8 10 9 3 5 7 4 7 7 7 5 4 6 8 9 9 9 9 9 10 9 10 11 11 10 10 9 10 8 7 6 7 7 7 6 6 6 5 5 6 6 7 6 7 7 7 7 7 6 6 6 7 6 6 5 5 5 6 6 4 5 5 5 4 4 4 4 4 4 4 4 4
14 7 6 8 10 12 10 7 7 4 8 5 4 3 5 4 7 1 4 3 3 6 6 4 8 10 13 10 3 3 6 10 6 6 6 6 6 7 7 9 8 7 7 9 9 10 10 12 11 11 11 9 9 9 8 8 7 7 7 7 8 8 7 7 7 7 7 8 8 7 7 7 7 6 6 6 8 7 7 5 5 5 6 6 4 5 5 5 4 4 4 3 4 4 4 5 4
12 8 7 9 8 10 10 9 6 5 5 4 6 8 3 4 5 1 1 3 5 3 5 4 7 7 10 14 11 6 5 8 9 8 7 7 7 3 2 5 7 8 8 9 9 10 12 12 11 12 11 11 9 9 9 8 7 7 7 7 8 8 7 8 8 7 7 7 8 9 8 8 6 6 6 7 6 6 6 5 5 6 6 5 5 5 5 5 5 5 4 4 4 4 4 5 4
2 13 11 8 9 10 9 9 6 7 2 2 10 7 5 7 5 4 1 2 3 5 4 6 6 7 6 8 11 10 8 9 9 11 13 9 6 2 4 6 2 7 9 9 10 9 10 11 12 12 13 11 9 9 8 8 7 7 8 8 8 7 7 8 7 7 8 7 7 8 8 7 6 6 5 6 5 5 4 5 6 6 6 5 6 6 5 5 6 5 5 5 5 5 5 5 5
11 15 13 13 10 9 8 9 6 4 4 3 8 6 3 2 2 1 2 3 3 5 2 5 6 6 4 4 5 5 8 9 8 6 5 4 2 2 2 5 2 1 3 7 7 7 9 10 11 12 12 11 8 8 9 9 8 8 8 8 7 8 8 8 7 8 7 6 6 6 6 6 6 3 4 3 1 2 1 4 6 5 5 6 6 5 5 6 5 5 6 5 5 4 4 4 5
14 17 16 11 6 4 5 8 6 5 1 2 5 5 2 1 2 4 2 0 1 1 5 6 6 5 5 4 4 3 3 4 6 3 4 5 4 4 3 4 3 2 5 3 2 4 9 12 12 11 11 11 9 8 8 9 8 8 9 8 8 9 8 8 8 6 5 6 6 7 7 7 5 4 3 3 3 4 2 0 3 6 6 4 5 5 6 5 5 4 4 3 3 3 3 3 3
17 20 14 10 8 5 2 9 6 2 2 5 7 6 4 4 3 3 2 0 1 2 4 5 6 5 5 4 4 3 3 2 2 3 3 2 2 3 4 4 4 5 3 4 4 3 11 10 9 10 10 9 9 8 7 7 8 7 6 8 7 5 5 4 5 5 5 4 3 2 3 4 4 4 3 4 3 4 3 3 3 3 5 5 5 7 6 4 4 4 4 3 2 2 3 3 4
13 3 15 9 5 3 4 0 2 4 4 8 2 2 6 4 3 4 1 1 0 2 1 4 4 5 4 4 3 2 2 3 3 3 3 4 3 2 5 3 3 5 4 3 5 4 3 4 6 6 7 8 8 7 5 6 4 4 4 4 4 4 4 4 3 3 3 3 2 2 1 0 1 1 2 1 3 4 4 4 3 3 5 6 6 5 5 5 5 5 5 4 5 4 4 4 4
8 5 4 8 8 5 7 3 3 6 1 5 1 4 5 5 6 6 3 3 3 4 2 5 5 4 4 3 3 2 2 1 3 3 4 4 3 3 2 1 2 3 4 5 5 3 4 4 4 3 3 4 5 4 5 4 3 4 5 4 3 2 2 2 1 2 2 1 0 1 1 1 1 2 1 1 1 3 4 5 4 3 3 5 6 5 6 5 5 6 5 5 4 3 3 3 4
7 6 1 0 4 5 6 3 8 8 2 3 5 2 4 6 7 4 4 4 3 4 2 5 5 4 3 3 2 2 1 1 1 1 2 3 3 3 3 3 3 2 4 5 4 3 5 5 5 6 4 4 3 3 3 5 5 4 4 4 4 3 3 2 3 3 3 2 2 2 2 2 2 2 2 1 1 1 2 3 4 4 3 3 5 5 4 6 6 5 6 6 5 6 4 4 3
2 3 5 4 2 7 2 6 8 5 5 2 4 2 0 4 8 4 3 5 5 3 3 5 6 6 5 3 3 2 2 0 0 1 1 1 2 4 4 4 3 3 4 5 6 4 3 4 5 6 5 5 4 3 3 3 4 4 3 3 3 2 2 3 3 2 2 2 3 4 3 3 3 3 3 2 2 3 2 3 3 5 5 4 3 4 5 5 5 6 6 6 6 5 5 4 4
7 2 4 5 10 6 3 3 6 4 4 2 4 4 6 2 5 6 3 5 6 4 4 5 5 5 5 4 3 3 3 2 2 2 3 2 2 3 4 4 3 4 5 4 5 6 5 3 4 4 5 5 4 3 2 2 1 2 2 2 2 3 2 3 3 3 4 4 3 4 4 4 4 4 4 3 2 3 3 3 2 4 5 4 4 4 5 5 5 6 6 6 6 5 5 5 5
8 3 4 2 2 10 9 10 8 7 2 8 6 4 6 5 6 4 3 5 10 8 6 6 6 5 4 4 4 3 2 2 3 3 3 3 2 2 3 3 3 3 3 4 5 4 4 4 3 3 4 4 4 3 2 2 1 0 0 0 0 1 2 2 2 3 4 4 4 4 4 4 5 4 4 3 3 3 3 3 2 2 3 4 4 5 5 4 4 5 6 5 5 5 4 4 4
12 12 9 8 8 5 7 6 5 10 7 6 9 9 7 5 3 2 3 3 7 5 4 6 5 4 4 4 4 3 2 3 3 3 3 3 3 3 2 3 4 4 3 3 4 5 5 3 3 4 3 3 3 3 3 2 2 1 2 1 2 2 3 2 3 4 4 4 5 5 5 5 4 4 3 2 2 2 3 4 4 2 2 3 3 3 4 4 4 5 6 6 5 3 2 2 3
11 7 8 8 8 4 5 4 7 7 6 4 2 1 2 1 1 0 2 3 4 4 7 6 4 3 3 3 3 3 3 3 3 4 4 4 4 4 4 4 3 2 3 4 3 3 4 6 5 5 5 5 5 4 3 4 3 2 2 4 4 4 3 4 4 4 5 5 5 5 4 4 5 5 3 3 3 3 4 3 3 3 2 2 3 4 3 3 4 5 5 4 6 4 3 3 2
11 9 11 9 8 8 7 9 9 4 3 1 5 3 2 1 3 5 2 4 3 4 5 7 6 3 3 4 5 3 3 1 3 2 3 3 3 4 4 3 4 4 2 4 3 3 3 3 5 4 3 4 5 5 5 4 4 4 3 3 4 4 4 4 5 5 5 5 5 5 5 4 4 5 4 3 4 4 4 3 3 4 3 3 3 3 3 3 3 3 4 3 2 5 4 6 4
16 11 5 7 3 6 5 6 3 2 4 3 4 4 2 3 4 5 2 1 0 2 4 5 8 6 4 3 5 4 3 3 3 3 3 2 3 3 3 3 3 3 3 3 3 3 3 2 3 3 3 4 4 4 4 3 3 2 3 2 3 2 2 2 2 3 2 4 4 4 4 4 4 5 4 4 5 4 4 4 5 4 3 3 4 4 3 4 4 5 6 6 3 1 2 2 6
5 6 9 8 10 12 5 4 3 1 1 6 4 6 1 2 2 3 3 3 2 2 3 6 9 9 7 5 5 5 1 2 3 3 4 4 3 3 3 2 3 3 2 2 1 2 2 1 1 1 1 2 2 3 3 1 2 1 0 2 2 2 2 2 1 2 4 4 5 5 5 4 4 5 5 5 5 5 5 5 5 4 4 3 4 4 4 5 4 5 5 6 5 3 2 2 3
10 10 7 9 12 12 16 11 4 4 7 6 7 4 1 2 1 1 4 3 1 2 5 5 3 5 5 5 4 6 6 7 4 3 3 4 4 3 2 2 0 3 2 2 2 3 3 3 2 1 2 2 1 1 2 1 4 3 4 2 0 1 2 2 2 4 4 5 5 4 6 5 6 6 5 6 6 6 5 5 5 5 5 4 4 5 5 5 5 5 5 3 6 4 3 2 3
10 10 19 22 19 9 8 12 9 4 1 4 8 3 0 3 1 1 2 1 0 1 5 4 6 7 7 6 6 5 7 8 3 6 6 4 5 4 2 3 3 1 1 1 1 2 3 2 2 2 0 1 3 3 4 3 4 4 4 3 2 2 3 2 4 5 4 4 5 3 4 4 6 6 6 6 6 6 6 6 6 6 6 5 5 5 5 5 5 4 4 4 4 6 5 5 5
14 9 16 17 15 15 16 13 7 3 4 7 4 3 2 4 3 4 3 3 2 0 1 3 3 3 4 6 6 8 9 5 2 4 5 6 3 4 3 2 2 1 3 2 2 3 2 3 1 6 1 1 1 1 1 5 7 5 4 4 4 4 4 4 3 4 4 4 4 4 5 4 3 5 5 5 6 6 6 6 7 6 6 6 5 4 4 6 4 4 4 4 5 5 5 6 6
6 9 12 14 16 16 17 17 8 4 1 3 4 2 6 2 6 3 2 4 3 1 1 8 11 8 1 4 6 7 7 7 6 5 7 6 7 9 8 8 7 6 4 3 2 3 3 5 7 5 2 4 4 3 7 5 3 3 3 3 3 4 5 6 4 4 4 3 4 5 4 4 4 4 4 4 5 6 7 6 6 6 6 6 6 5 6 5 5 5 5 6 4 4 5 6 5
3 11 15 17 19 18 16 11 6 5 9 2 5 4 2 2 5 4 4 2 3 5 7 9 10 6 9 10 3 4 7 6 6 6 5 5 6 6 6 5 5 4 4 3 2 3 4 3 3 2 2 3 4 5 4 3 3 4 4 3 4 5 5 5 4 3 3 3 4 4 4 4 3 4 5 6 6 5 7 6 6 6 6 6 6 6 6 6 7 7 6 6 5 5 5 5 5
6 18 15 10 10 11 11 4 6 3 4 4 7 8 3 3 2 3 0 3 5 9 10 8 11 12 12 7 7 3 3 3 5 7 7 6 5 5 5 5 5 4 4 4 3 3 3 2 1 1 2 2 2 3 3 3 4 3 4 4 4 5 4 4 3 4 4 3 4 4 4 4 4 4 5 5 5 6 6 6 6 7 7 7 6 7 7 7 7 7 8 7 6 5 5 6 7
15 15 11 7 5 3 3 3 3 3 1 5 7 10 5 2 5 8 8 8 8 6 2 3 3 5 6 9 8 4 6 5 6 8 7 6 5 6 6 6 5 4 5 5 4 4 3 4 4 3 1 2 1 3 3 3 3 3 4 4 4 5 4 3 4 5 3 3 3 5 4 4 4 4 4 4 6 6 6 6 7 7 7 8 7 7 7 7 7 7 7 7 7 7 6 7 7
19 7 11 9 4 4 2 1 4 2 1 3 3 8 5 2 4 6 12 1 8 13 12 12 11 10 9 8 7 8 8 7 8 8 7 7 6 5 6 6 5 4 4 4 4 3 3 2 3 2 1 1 1 2 3 3 3 4 3 3 4 4 3 2 3 4 4 4 4 5 5 4 4 4 4 4 5 6 6 6 6 6 7 7 7 7 6 6 6 6 6 5 5 4 3 4 6
7 10 10 11 2 2 3 2 1 2 3 2 3 7 2 1 5 7 9 11 4 9 11 14 14 12 11 9 10 10 8 8 7 7 7 6 6 6 5 5 5 5 4 4 4 4 4 3 3 3 1 0 0 2 2 0 1 2 3 2 2 1 2 2 3 3 4 3 4 4 4 5 4 4 4 4 6 6 6 6 6 6 6 7 7 6 7 7 6 6 6 5 6 7 8 8 7
12 10 7 7 4 3 4 2 1 1 2 3 4 2 1 2 7 4 8 11 9 9 8 12 14 15 12 12 10 10 9 8 7 7 6 6 7 6 5 4 4 4 5 5 4 4 4 4 3 2 0 0 0 3 1 0 1 1 2 2 2 0 0 1 2 3 4 3 3 3 4 5 5 5 5 6 6 5 5 7 6 7 7 6 6 7 7 7 7 6 5 5 7 8 7 7 7
8 6 8 6 8 6 3 4 2 4 3 3 3 1 2 1 2 3 1 1 7 7 8 9 13 13 12 12 10 10 9 6 8 7 7 7 7 6 5 5 4 4 4 4 4 4 4 4 3 3 1 0 1 2 1 2 1 3 3 3 2 1 1 1 2 3 3 4 4 3 3 3 4 5 5 6 6 5 6 5 6 6 6 6 5 5 6 7 7 6 6 7 6 6 7 7 7
2 2 6 5 4 5 2 5 7 4 2 0 3 1 3 4 2 1 3 2 1 5 9 10 11 9 10 10 10 10 9 8 7 8 7 7 7 6 6 5 5 4 4 3 4 4 4 4 4 3 3 2 1 0 0 1 1 3 3 4 3 2 1 2 3 3 3 3 4 4 5 5 5 5 6 5 5 4 5 5 3 4 4 5 5 5 6 6 6 6 6 6 7 5 6 7 7
3 2 1 5 5 9 5 4 2 5 6 1 1 5 2 5 1 3 4 2 4 7 10 11 11 9 11 11 10 10 9 9 7 9 7 7 6 6 6 6 5 5 4 4 5 6 5 4 4 3 1 1 1 1 1 1 2 3 2 2 3 4 4 4 5 5 5 4 3 3 3 4 4 4 5 4 5 4 3 3 4 4 4 4 5 6 6 6 6 6 6 6 7 6 6 7 7
4 2 7 0 2 9 7 4 1 2 4 3 1 2 5 1 3 3 5 5 3 10 10 13 11 10 12 11 11 12 11 10 9 8 8 8 7 7 5 5 6 6 6 5 5 4 5 5 5 4 3 1 2 2 1 2 3 2 2 2 3 2 2 3 3 4 5 5 5 5 4 4 4 5 4 4 4 4 3 3 3 4 5 5 5 5 5 5 4 4 5 6 6 5 5 6 6
9 8 5 6 0 4 3 5 2 3 1 2 2 1 3 5 4 5 8 10 9 10 9 11 11 12 13 11 11 10 10 9 9 9 8 7 8 6 6 7 6 6 5 5 4 3 4 3 2 4 4 4 1 1 1 0 1 1 1 3 3 3 3 3 4 4 4 4 5 5 5 6 6 5 4 3 3 3 4 4 3 3 4 5 6 5 4 4 3 5 5 5 5 5 6 7 6
3 1 4 2 6 5 3 5 4 7 2 1 3 3 4 5 5 11 12 12 11 12 11 12 13 12 12 11 11 12 12 10 9 9 8 8 8 8 8 7 6 5 4 2 4 4 2 1 1 2 1 1 2 3 1 2 2 2 3 3 4 3 4 4 4 4 5 4 5 5 5 6 6 6 5 4 3 4 4 5 6 5 5 4 4 4 3 4 4 5 5 5 6 5 6 7 6
1 1 3 1 1 4 4 3 1 5 6 4 2 1 7 9 6 9 12 12 11 12 11 10 11 12 14 14 13 12 12 11 10 9 9 9 8 8 7 6 5 4 3 4 4 5 4 2 1 0 2 1 3 1 2 0 1 3 3 3 3 4 5 5 5 4 4 4 5 4 5 5 4 5 4 5 5 5 5 4 4 4 3 4 4 4 3 4 4 4 5 5 6 5 6 6 5
9 7 4 6 4 1 6 2 1 4 7 4 4 4 7 9 4 9 10 10 8 10 11 10 11 13 14 14 14 14 11 11 11 10 10 9 8 8 7 5 4 4 4 6 5 5 4 3 1 2 0 2 2 1 1 1 2 2 2 3 4 4 5 5 5 5 4 4 3 3 3 4 4 5 4 5 5 4 4 4 4 4 4 4 4 4 5 4 5 4 5 4 5 6 5 6 6
Wind_Direction
159 153 156 153 153 149 89 130 93 339 56 55 231 217 188 248 315 319 337 280 54 278 220 247 263 253 117 126 127 110 38 145 216 146 214 167 132 139 130 128 134 137 141 144 147 152 155 157 157 157 159 160 158 155 151 149 149 149 147 147 148 146 142 140 138 135 133 128 127 126 123 120 118 116 115 111 105 104 105 108 107 102 98 97 89 87 90 97 103 107 113 120 121 122 122 123 122
152 153 155 155 159 144 207 147 110 48 49 124 12 350 261 320 304 271 284 311 186 202 216 249 323 58 22 126 153 134 29 19 73 115 86 116 125 129 130 134 141 144 142 148 149 152 157 160 158 161 164 163 158 156 152 152 151 149 148 149 151 149 147 143 138 136 134 132 134 131 127 126 124 122 121 119 118 117 113 114 112 107 100 98 90 93 99 105 108 109 114 118 120 123 126 126 124
152 153 150 135 84 272 98 290 56 354 74 63 3 38 328 341 200 242 265 271 294 282 289 247 214 59 29 172 45 55 207 49 89 90 99 132 124 143 134 137 138 138 139 147 149 153 159 165 162 163 164 162 158 153 154 153 152 151 151 154 154 151 145 141 139 137 133 135 135 131 129 130 129 129 128 128 128 126 127 122 112 109 108 104 109 107 107 108 107 108 110 116 117 117 114 120 125
149 163 147 155 128 9 280 54 72 65 53 22 25 39 226 265 259 274 322 297 301 288 300 314 81 7 112 75 98 67 83 76 67 119 128 154 146 140 136 134 134 134 136 144 149 153 158 167 165 163 161 158 154 155 155 155 155 155 157 156 153 147 141 140 140 136 135 138 135 131 131 131 132 131 132 133 134 135 134 127 117 120 119 116 112 107 103 102 106 110 112 113 117 114 111 114 122
150 160 147 143 112 336 120 57 64 35 31 9 358 325 348 347 303 309 340 283 288 348 342 311 84 43 66 84 26 44 107 109 110 91 119 109 129 134 132 130 133 136 139 145 149 152 160 164 163 160 156 155 154 156 156 156 157 159 158 155 149 143 140 140 138 135 137 138 136 134 134 132 131 133 135 137 136 135 134 132 130 126 123 117 109 110 111 111 115 117 119 116 115 116 118 119 124
133 133 334 104 1 188 55 31 22 36 25 339 345 340 344 328 343 318 283 289 336 347 314 48 70 158 50 32 351 102 154 122 137 112 119 138 137 135 131 130 133 135 138 140 148 155 159 161 158 155 155 154 155 156 157 157 158 157 156 152 146 144 143 141 136 134 138 139 136 135 130 129 129 131 134 135 138 138 138 140 134 128 125 121 118 115 112 112 115 122 125 125 121 120 120 120 119
144 124 356 59 153 130 96 75 51 34 352 325 117 25 356 336 322 298 266 299 6 334 3 32 335 110 96 100 70 69 34 132 137 136 134 139 134 132 132 133 134 134 132 137 145 153 159 159 155 154 154 155 155 155 155 154 154 154 153 151 148 145 143 139 134 137 140 140 139 136 132 130 129 128 134 136 137 138 138 134 132 129 123 117 119 115 111 109 122 126 127 130 129 129 125 118 120
323 58 181 105 51 59 48 77 84 106 290 326 234 170 208 206 219 293 311 115 326 26 322 318 21 98 67 29 115 14 6 346 130 126 127 134 134 133 134 136 133 131 130 134 143 153 160 156 155 155 156 156 154 152 151 151 151 152 153 153 150 147 144 138 138 141 144 144 143 140 136 135 134 132 128 127 130 130 133 136 132 124 125 128 122 121 116 116 123 126 131 135 139 133 137 127 122
343 63 279 71 52 28 63 27 339 162 221 310 42 358 344 300 231 151 54 101 174 19 2 336 305 46 104 71 47 296 307 356 121 126 131 136 137 139 139 140 136 134 133 135 142 154 157 157 155 156 156 153 152 151 151 151 153 154 155 154 152 148 143 141 143 147 150 150 150 148 147 142 134 128 129 128 126 134 139 140 135 130 129 128 123 123 129 127 126 126 127 136 137 144 150 138 128
350 267 352 114 159 53 64 344 1 299 282 231 317 8 338 30 328 261 154 88 93 92 28 23 61 105 98 70 14 336 315 298 131 135 140 143 141 140 140 139 138 137 138 139 146 151 156 160 156 156 155 154 154 153 153 154 155 155 155 155 153 148 145 148 153 155 155 157 154 157 155 147 138 136 138 135 133 144 150 146 141 144 146 144 145 149 149 156 150 141 144 139 138 138 147 161 144
358 354 195 58 42 67 55 262 246 281 283 312 210 255 122 252 229 290 335 133 80 67 270 13 61 65 78 111 189 246 278 184 138 143 145 146 141 135 133 137 138 140 143 143 144 148 156 161 158 157 157 156 157 156 154 155 155 155 156 157 155 151 154 156 161 161 163 161 164 163 159 155 153 146 146 143 149 151 156 150 152 152 154 158 154 156 169 169 180 179 160 156 146 143 148 162 173
5 340 345 85 74 145 227 201 267 282 257 296 244 15 294 308 291 64 357 74 4 55 51 2 156 119 77 180 255 282 295 59 62 127 143 132 129 133 135 136 139 141 143 141 140 142 155 159 157 158 158 157 157 157 156 155 154 156 158 158 157 159 161 165 168 168 167 171 170 168 167 165 164 159 155 155 157 160 159 162 159 161 165 168 170 170 171 186 187 191 193 160 150 145 153 158 152
255 127 273 79 183 108 178 163 269 216 333 306 282 309 318 270 67 239 58 117 294 85 26 1 97 78 186 206 2 342 121 218 279 158 132 128 131 130 130 135 139 138 141 139 136 144 149 152 154 155 157 157 156 158 156 154 154 158 162 161 162 165 170 173 175 174 174 175 176 173 174 178 175 168 165 166 163 166 167 166 167 168 178 179 174 174 176 183 200 204 194 187 153 143 149 161 154
192 183 144 73 358 131 129 42 294 12 352 278 197 300 295 246 214 209 289 19 343 81 130 320 60 133 126 102 300 161 171 240 287 140 125 131 129 130 131 134 138 137 139 139 140 145 147 152 152 155 157 156 157 158 157 156 157 163 165 168 168 172 178 180 179 179 182 182 180 182 187 185 186 180 186 179 175 175 174 173 175 175 179 184 182 181 178 184 199 211 205 196 180 149 153 165 166
204 134 125 109 312 115 310 93 288 41 304 347 295 333 320 250 205 254 202 98 341 307 296 101 120 68 219 159 172 186 193 214 2 107 120 123 122 127 130 133 136 136 140 141 141 145 148 150 152 152 159 158 157 151 159 163 162 166 168 175 176 180 184 185 183 185 188 188 187 187 194 198 199 199 196 200 193 187 185 184 185 183 184 186 187 188 184 181 197 218 230 223 196 173 166 177 188
204 182 144 97 240 125 272 97 275 30 295 222 283 284 284 302 188 356 14 150 123 344 40 9 17 222 66 80 89 136 113 189 47 111 122 122 122 126 130 132 135 138 144 147 146 149 149 150 152 156 158 159 148 152 158 173 168 170 175 179 182 185 187 190 189 188 191 195 195 193 197 205 210 211 211 216 208 202 202 193 199 191 189 191 192 189 190 187 194 204 231 247 234 215 224 235 221
218 11 48 41 133 115 202 135 150 307 247 280 311 337 28 30 196 120 92 58 66 23 37 43 45 40 47 61 55 60 75 52 124 108 118 124 127 129 131 134 136 138 147 156 153 153 154 153 158 158 166 161 155 157 174 177 176 174 180 186 187 189 191 194 194 193 195 200 197 198 203 207 234 233 237 223 225 216 211 201 205 202 197 197 200 194 191 191 196 202 210 223 234 226 225 253 264
159 149 126 133 176 90 194 162 183 153 133 250 296 216 305 41 342 43 351 48 79 56 58 54 58 68 114 134 139 138 103 48 139 129 141 132 130 138 144 145 146 151 156 162 163 156 157 160 161 162 166 168 163 165 178 181 187 175 185 190 189 194 196 198 196 192 200 197 203 205 198 210 218 233 233 242 225 230 223 212 205 209 204 204 204 203 199 199 194 203 208 212 215 221 229 200 306
136 146 99 172 190 186 143 153 140 132 206 177 215 241 165 105 303 333 64 28 54 51 62 59 82 81 81 73 67 58 90 85 27 74 147 141 140 149 147 151 151 150 159 166 167 163 163 163 164 167 170 173 171 171 177 188 190 170 189 192 192 197 205 201 201 197 198 189 223 211 211 215 218 227 231 231 229 223 225 225 210 210 210 208 208 208 205 204 200 201 207 207 213 216 216 120 207
163 142 133 195 163 128 134 149 171 181 143 140 133 83 84 292 322 306 81 85 47 71 122 31 100 121 127 112 87 101 118 99 84 55 122 149 146 147 152 159 157 160 163 169 165 167 163 168 174 173 173 176 175 179 176 186 186 177 188 195 198 200 207 209 202 202 195 196 205 213 222 221 227 228 239 240 239 228 226 226 214 212 209 206 210 210 209 206 202 203 205 200 205 182 115 135 123
158 62 144 158 145 117 189 151 158 151 146 141 137 142 78 26 313 60 134 70 32 10 339 152 142 147 148 137 136 144 114 83 83 101 251 143 159 157 160 165 162 161 161 161 161 172 171 170 173 181 178 178 180 182 179 186 180 177 193 201 205 210 213 217 208 207 206 205 214 220 222 223 229 233 239 248 247 238 211 218 222 199 191 192 209 195 213 215 202 204 208 201 177 155 135 124 132
116 112 146 137 135 110 162 153 155 155 167 108 117 93 101 177 38 41 85 107 166 212 213 220 161 152 141 135 145 110 92 115 129 173 214 165 168 171 158 160 157 156 155 161 170 170 175 175 176 178 181 186 182 185 184 186 176 183 192 201 205 220 218 220 218 218 218 216 218 222 225 226 229 232 232 238 243 241 218 202 212 192 188 189 203 180 209 214 226 195 197 190 192 152 140 143 176
92 88 127 128 133 127 149 144 162 145 147 124 119 130 121 83 91 12 78 80 130 177 183 202 151 129 126 116 161 121 124 106 129 175 191 192 238 183 167 162 162 164 167 166 167 171 174 177 177 177 182 185 186 190 184 185 188 190 189 194 198 212 212 214 218 217 221 219 221 223 221 225 229 226 228 232 236 233 229 192 199 190 196 193 188 177 200 213 217 203 196 199 190 167 148 154 171
124 141 141 119 125 121 136 135 147 149 123 139 137 135 98 124 81 290 56 303 79 154 192 183 123 123 117 118 171 188 141 142 159 182 219 230 215 235 167 163 165 162 167 168 170 171 175 176 175 178 184 185 186 188 182 192 191 191 195 197 202 208 206 215 216 218 217 221 222 223 222 224 223 222 223 224 231 226 228 196 182 194 196 198 184 180 193 210 207 208 205 203 195 190 171 171 170
118 115 120 111 101 113 113 118 106 86 70 102 118 100 118 123 133 109 7 312 343 142 155 143 127 126 132 144 166 157 155 139 160 180 235 244 241 253 105 107 148 163 170 179 176 173 178 176 174 178 183 186 185 185 187 194 190 196 196 198 206 210 209 215 216 217 221 223 223 225 221 225 226 226 224 227 233 225 220 194 185 193 195 194 185 193 189 198 207 200 205 202 195 189 184 181 174
117 118 116 110 108 107 111 104 104 101 76 106 91 103 134 132 124 63 235 283 290 319 138 134 133 128 133 133 154 157 160 159 173 191 205 189 188 145 91 101 260 152 179 180 178 184 182 176 178 181 185 188 182 182 191 190 191 196 200 200 206 207 216 215 217 219 224 220 226 226 227 228 230 218 212 228 218 222 196 202 196 192 193 186 193 193 193 191 201 202 204 207 195 189 189 185 172
120 115 115 119 124 116 124 122 135 135 117 175 120 135 162 238 99 153 261 230 312 328 205 123 125 132 137 136 148 168 154 172 197 196 163 131 135 134 112 117 129 152 119 157 184 187 184 177 183 186 187 189 186 174 188 192 187 199 202 205 200 208 213 212 216 222 226 226 231 234 239 238 248 224 195 227 226 134 203 212 193 170 179 190 191 195 186 199 197 207 205 203 195 193 203 193 177
117 114 107 106 104 78 111 113 127 123 105 199 136 136 161 288 62 173 229 37 25 291 139 122 125 130 138 142 146 171 190 162 182 180 162 153 172 159 150 140 189 138 103 94 112 191 179 184 183 185 188 191 191 179 179 194 193 199 207 207 203 208 210 212 213 214 208 219 226 225 230 237 238 237 155 163 160 150 172 161 176 170 180 179 188 189 191 191 194 206 219 228 208 177 204 206 189
127 127 110 112 107 87 118 131 163 118 148 181 172 86 30 350 141 230 216 107 36 77 132 141 135 141 144 149 147 159 181 160 141 164 189 188 189 149 158 178 160 110 109 100 71 127 172 184 180 186 189 188 190 192 176 187 198 192 191 205 203 192 193 184 178 178 183 193 185 176 213 224 223 215 157 158 159 134 122 106 102 157 157 171 184 194 181 174 183 195 212 214 205 181 198 211 209
125 120 123 116 93 112 239 36 138 128 206 196 152 52 282 279 253 265 267 318 108 114 123 142 145 147 147 154 155 158 150 164 176 199 180 197 215 193 158 191 151 126 126 95 73 64 74 142 173 181 188 191 188 193 184 175 170 142 142 135 127 133 147 147 153 183 202 198 177 181 211 219 155 151 156 148 135 118 120 122 121 129 161 171 179 174 173 178 186 195 201 200 208 201 205 201 194
125 128 76 131 130 188 221 185 179 146 206 189 41 142 253 272 272 253 257 234 152 161 148 136 141 148 157 155 157 170 194 184 177 186 191 191 201 203 152 116 121 119 106 97 92 79 77 82 128 130 158 180 178 178 185 153 139 135 128 121 118 114 112 131 191 189 226 214 161 268 228 227 230 211 199 163 151 146 142 138 141 163 164 161 179 179 175 179 184 194 190 202 213 207 226 219 201
140 113 46 222 149 180 201 194 168 158 252 136 85 22 231 243 252 228 192 200 167 143 183 138 132 147 155 158 156 160 175 76 102 165 175 192 177 189 173 181 170 144 113 108 116 95 77 67 94 105 99 107 119 138 145 142 144 145 141 143 146 153 150 168 207 214 199 216 216 215 252 258 236 235 225 203 202 171 152 152 152 163 171 164 176 180 170 180 186 188 200 189 195 216 202 222 201
301 96 165 189 166 155 115 220 201 180 146 234 167 188 14 292 256 251 164 162 162 150 196 139 138 144 152 155 143 135 114 69 319 274 249 203 199 181 184 174 159 139 99 132 122 96 103 115 107 111 119 121 122 121 121 124 136 143 151 152 160 157 172 202 227 237 250 231 235 230 220 227 240 255 261 251 245 258 232 195 170 160 160 158 177 183 187 192 183 186 195 197 193 196 201 206 203
205 162 162 210 149 144 194 196 240 174 152 106 169 149 221 212 221 233 218 196 158 165 181 153 145 154 157 145 140 142 159 191 223 239 245 238 222 167 177 166 152 146 150 149 133 146 150 140 141 140 141 142 144 145 141 128 117 118 126 142 155 179 205 223 238 247 257 255 234 232 225 230 227 219 220 229 223 239 241 227 173 158 169 171 178 190 204 195 193 192 194 198 192 184 193 192 200
177 155 136 146 170 173 159 163 210 149 153 139 141 175 193 190 197 210 199 173 149 169 169 154 152 154 156 152 151 151 177 209 227 222 221 228 224 188 168 162 148 154 157 150 127 152 147 154 159 150 153 154 144 149 151 128 113 41 13 34 146 235 235 235 239 252 262 268 269 265 247 237 241 231 219 213 207 229 254 264 238 205 199 198 180 180 197 207 201 197 195 191 193 200 192 181 167
159 174 173 153 155 194 174 198 150 156 138 128 158 168 181 178 155 148 66 69 123 164 156 149 148 146 143 148 130 145 183 234 222 195 196 182 174 180 174 159 160 153 156 148 151 151 155 152 143 142 153 154 146 149 140 138 126 172 217 306 304 276 264 257 246 237 248 251 254 256 260 260 258 258 249 233 223 229 245 252 254 241 206 186 195 205 191 190 190 191 204 181 181 201 206 147 116
176 155 154 149 155 177 170 149 168 145 104 152 166 31 89 54 350 41 108 89 74 102 120 140 135 144 149 132 136 171 186 215 201 175 167 164 144 145 149 150 152 135 154 160 153 164 162 164 153 165 166 154 152 155 158 157 169 194 211 214 228 230 232 236 242 241 238 240 241 247 247 242 248 255 249 239 237 236 227 246 262 269 250 221 216 230 230 207 196 191 186 173 173 189 204 197 140
142 168 156 168 169 164 161 156 159 176 107 147 87 90 60 348 333 325 311 88 112 137 125 135 158 144 150 122 118 140 177 110 115 129 165 154 132 129 126 135 133 125 139 146 143 170 181 171 169 174 169 158 169 172 181 181 185 182 171 203 214 227 236 237 241 238 237 239 239 245 247 226 233 235 234 217 233 227 236 232 238 245 241 241 234 233 241 236 216 212 177 179 202 187 203 171 164
161 162 159 123 76 92 90 144 116 207 90 124 112 102 57 348 321 313 334 50 199 186 151 153 140 143 136 128 114 116 112 135 138 138 108 111 111 98 123 124 122 140 148 135 137 103 128 151 161 164 165 180 186 189 180 190 190 175 163 205 190 233 262 231 243 257 254 248 247 246 246 237 224 231 229 224 229 233 233 233 239 237 235 241 255 247 231 239 221 210 195 190 172 247 233 157 159
118 119 143 166 153 137 167 207 177 200 145 171 135 103 258 320 316 304 306 347 308 272 155 140 145 152 157 149 121 86 18 184 154 119 114 102 84 81 115 122 141 123 117 119 107 128 125 121 126 118 171 180 195 207 173 127 98 81 50 211 215 176 214 235 262 287 281 272 260 247 249 243 232 230 224 229 234 234 230 233 244 243 243 231 239 255 244 240 233 226 212 201 155 170 198 192 175
170 164 141 138 165 192 159 179 132 100 35 93 103 64 12 36 20 350 321 316 337 19 85 81 79 102 104 93 89 107 128 276 155 135 123 124 115 116 113 71 98 138 148 164 158 163 169 161 151 182 172 198 206 75 21 331 155 162 163 168 51 5 353 318 286 274 254 250 254 244 242 236 234 229 216 217 225 233 232 232 234 240 241 235 230 243 247 242 232 233 222 196 177 181 211 179 210
149 176 165 173 179 134 118 126 119 33 12 264 155 71 355 336 343 281 279 355 25 332 111 124 125 120 124 136 150 148 180 224 192 164 159 145 148 144 89 76 7 12 47 4 210 92 68 23 324 182 194 74 114 182 150 183 289 163 156 177 241 254 264 251 238 245 251 238 238 245 241 235 231 227 220 214 217 226 232 231 232 233 233 233 225 233 247 245 244 239 238 234 213 193 185 175 202
154 216 183 163 142 140 140 145 112 111 164 225 180 128 151 296 239 216 201 158 228 338 133 137 127 137 145 159 174 175 191 196 183 131 137 128 110 119 130 114 215 240 191 187 215 102 100 132 149 263 158 91 105 133 203 204 177 191 190 203 209 219 236 251 235 228 228 243 247 265 260 259 239 226 228 218 214 218 223 225 227 229 231 231 230 222 229 237 239 246 253 236 233 204 178 187 189
226 195 162 142 135 140 160 163 160 174 135 66 162 119 138 238 282 304 312 143 160 137 67 32 6 347 275 195 185 179 179 178 174 160 159 162 154 157 166 178 180 195 192 180 153 157 171 195 204 222 189 170 209 173 219 194 178 192 204 226 230 240 233 250 255 264 249 248 259 260 260 251 234 218 227 238 227 223 228 224 225 229 235 232 234 223 225 230 239 248 247 249 245 179 181 191 205
201 137 136 144 154 163 166 162 163 134 116 152 238 208 65 210 273 335 329 197 165 150 143 157 170 200 303 301 211 175 172 174 161 155 155 149 146 159 157 157 163 145 147 159 180 183 180 196 207 204 209 206 188 202 201 212 194 200 212 216 248 253 244 245 245 248 259 248 256 258 254 258 247 231 222 218 226 224 230 228 222 227 227 229 226 230 230 228 230 236 236 236 234 222 196 207 205
122 132 151 138 137 152 146 146 135 115 72 193 225 197 124 291 232 292 161 302 211 194 186 184 189 180 180 219 258 185 136 122 121 121 118 121 133 133 134 134 128 141 142 141 131 120 124 132 152 166 254 239 230 229 225 218 220 206 201 216 229 255 254 264 264 263 258 254 259 263 257 256 248 234 226 229 226 220 222 224 221 220 222 222 225 229 228 225 226 227 229 229 227 227 208 209 214
128 101 89 73 65 100 25 65 93 61 57 236 212 191 140 229 234 209 172 218 185 170 115 182 248 263 221 195 218 159 136 137 134 122 119 123 123 116 118 121 130 127 134 126 120 122 123 126 129 121 214 230 244 232 217 231 229 212 220 221 224 244 253 255 296 299 297 296 275 284 274 266 259 249 236 232 230 229 223 215 217 219 217 225 225 224 223 224 226 226 228 227 226 223 227 212 216
129 137 134 121 86 6 28 337 35 113 274 266 211 176 153 134 283 228 225 155 160 166 180 189 195 205 213 203 180 152 150 147 136 127 126 123 109 103 103 105 111 115 113 126 131 116 114 114 104 109 12 0 25 137 188 232 230 221 229 238 236 236 246 255 254 276 289 284 279 278 284 290 279 273 266 257 245 230 222 223 221 219 217 214 221 219 223 223 228 230 236 233 250 258 244 236 244
79 117 137 130 189 76 219 6 328 176 175 246 185 137 33 256 213 221 218 209 186 191 178 188 182 192 199 192 170 153 155 147 142 140 142 136 137 135 123 128 128 127 140 151 142 139 133 124 132 111 85 207 281 8 9 319 150 200 209 207 228 252 255 246 260 276 282 284 281 285 297 294 287 285 267 255 257 235 224 225 219 218 221 218 220 216 224 226 226 231 228 207 219 224 234 212 214
133 146 144 109 117 168 195 236 199 327 256 294 209 173 105 278 294 235 210 195 193 186 197 186 176 185 183 178 166 156 158 155 152 150 146 148 150 161 160 157 155 149 143 153 166 150 145 124 122 117 195 255 350 13 354 353 1 305 266 289 266 210 209 231 262 275 293 281 271 275 285 289 296 281 284 277 269 256 225 226 224 224 223 218 214 216 220 221 221 222 227 222 223 225 225 222 224
176 164 177 176 152 157 182 177 176 202 199 270 296 132 234 138 253 293 306 153 184 180 182 186 190 178 174 166 159 155 156 158 150 147 154 155 156 153 152 158 160 165 181 169 162 154 141 144 122 120 127 295 9 358 6 342 324 325 334 330 315 243 275 293 284 278 284 303 303 294 282 269 259 278 283 283 287 282 260 241 229 228 231 228 221 217 219 220 222 222 227 233 237 237 237 238 236
269 137 98 102 219 155 114 201 146 170 147 2 326 175 171 174 211 207 117 103 254 178 180 192 194 176 160 150 159 160 159 156 152 148 156 155 157 148 143 151 156 171 182 158 155 163 163 173 169 156 162 220 248 131 5 226 326 29 18 12 345 334 337 321 317 306 294 269 274 283 294 296 293 296 294 294 295 281 274 268 253 241 237 238 236 232 227 222 216 216 224 226 233 231 234 235 238
255 133 193 217 170 103 102 34 35 85 58 275 281 324 307 302 24 224 144 141 236 194 186 190 184 169 153 156 159 160 159 153 160 155 166 166 158 157 159 158 161 168 172 175 172 177 178 180 168 187 145 187 225 244 192 199 96 61 359 1 358 354 355 350 332 320 309 299 287 286 280 282 295 292 291 303 318 323 310 275 280 277 254 239 238 234 228 222 215 215 218 219 229 228 225 233 232
98 157 232 129 59 115 120 139 308 70 127 246 8 255 299 355 265 221 159 181 218 176 176 181 173 148 157 158 162 162 160 161 163 160 163 161 166 167 170 172 169 177 188 193 195 191 177 172 178 175 198 196 249 258 359 48 64 32 356 4 334 340 338 325 317 316 315 319 322 319 312 313 302 295 299 311 319 321 326 311 268 274 278 274 261 254 241 236 219 220 231 234 231 222 232 237 229
157 198 186 102 246 18 356 103 142 95 285 261 289 277 263 185 242 174 188 185 187 185 173 173 170 156 158 159 158 153 150 152 156 164 160 164 167 167 163 180 181 194 198 190 198 175 183 186 170 173 191 208 217 177 144 115 58 3 339 325 318 321 327 316 310 311 315 321 314 313 313 308 310 309 311 313 317 319 324 323 302 290 288 282 278 269 260 250 213 224 230 237 240 225 227 242 240
358 359 75 187 114 127 217 214 163 110 187 86 288 39 260 220 219 185 184 190 176 184 167 176 177 158 157 157 154 157 161 164 167 166 163 172 165 167 168 170 173 167 204 157 179 160 161 67 190 237 332 116 84 102 139 70 348 354 333 339 329 324 308 307 303 306 308 301 296 302 307 317 313 314 315 319 328 326 322 320 319 321 313 303 288 270 241 242 233 236 246 249 251 236 237 238 240
214 32 133 266 131 165 114 9 101 148 158 164 138 335 269 253 198 166 185 185 184 178 171 166 168 154 158 158 159 164 167 168 170 163 172 172 166 169 173 174 172 168 135 112 119 135 137 137 113 214 141 108 105 115 81 51 325 347 358 330 318 322 317 313 314 308 305 304 308 318 322 313 325 324 324 328 329 326 321 316 315 311 311 314 314 292 264 254 253 247 245 248 254 254 253 258 254
181 153 170 180 92 41 145 227 59 117 116 176 133 227 263 268 177 176 173 184 172 178 155 159 149 154 155 161 164 166 169 174 166 172 172 168 167 173 168 175 150 156 136 127 129 125 143 153 159 162 150 89 115 80 77 324 346 11 352 317 328 321 317 321 324 325 327 320 319 312 304 319 322 307 316 316 316 317 316 315 310 300 293 286 282 282 279 259 247 252 257 233 238 244 242 248 250